Time,TemperatureF,DewpointF,PressureIn,WindDirection,WindDirectionDegrees,WindSpeedMPH,WindSpeedGustMPH,Humidity,HourlyPrecipIn,Conditions,Clouds,dailyrainin,SoftwareType,DateUTC
2013-01-21 00:00:00,30.9,28.9,30.13,North,0,0.0,0.0,92,0.00,,,0.00,WUHU21623XXSP,2013-01-21 08:00:00,
2013-01-21 00:06:00,30.7,28.7,30.13,North,0,0.0,0.0,92,0.00,,,0.00,WUHU21623XXSP,2013-01-21 08:06:00,
2013-01-21 00:12:00,30.9,28.9,30.13,North,0,0.0,0.0,92,0.00,,,0.00,WUHU21623XXSP,2013-01-21 08:12:00,
2013-01-21 00:18:00,30.9,28.9,30.12,North,0,0.0,0.0,92,0.00,,,0.00,WUHU21623XXSP,2013-01-21 08:18:00,
2013-01-21 00:23:00,31.1,29.1,30.13,North,0,0.0,0.0,92,0.00,,,0.00,WUHU21623XXSP,2013-01-21 08:23:00,
2013-01-21 00:28:00,31.1,29.1,30.13,North,0,0.0,0.0,92,0.00,,,0.00,WUHU21623XXSP,2013-01-21 08:28:00,
2013-01-21 00:33:00,31.1,29.1,30.13,North,0,0.0,0.0,92,0.00,,,0.00,WUHU21623XXSP,2013-01-21 08:33:00,
2013-01-21 00:39:00,30.9,28.9,30.13,North,0,0.0,0.0,92,0.00,,,0.00,WUHU21623XXSP,2013-01-21 08:39:00,
2013-01-21 00:44:00,30.7,28.7,30.13,North,0,0.0,0.0,92,0.00,,,0.00,WUHU21623XXSP,2013-01-21 08:44:00,
2013-01-21 00:49:00,30.7,28.7,30.13,North,0,0.0,0.0,92,0.00,,,0.00,WUHU21623XXSP,2013-01-21 08:49:00,
2013-01-21 01:00:00,30.7,28.7,30.12,North,0,0.0,0.0,92,0.00,,,0.00,WUHU21623XXSP,2013-01-21 09:00:00,
2013-01-21 01:06:00,30.7,28.7,30.12,North,0,0.0,0.0,92,0.00,,,0.00,WUHU21623XXSP,2013-01-21 09:06:00,
2013-01-21 01:11:00,30.7,28.7,30.12,North,0,0.0,0.0,92,0.00,,,0.00,WUHU21623XXSP,2013-01-21 09:11:00,
2013-01-21 01:16:00,30.9,28.9,30.12,North,0,0.0,0.0,92,0.00,,,0.00,WUHU21623XXSP,2013-01-21 09:16:00,
2013-01-21 01:22:00,31.1,29.1,30.12,North,0,0.0,0.0,92,0.00,,,0.00,WUHU21623XXSP,2013-01-21 09:22:00,
2013-01-21 01:27:00,30.9,28.9,30.13,North,0,0.0,0.0,92,0.00,,,0.00,WUHU21623XXSP,2013-01-21 09:27:00,
2013-01-21 01:33:00,30.9,28.9,30.13,North,0,0.0,0.0,92,0.00,,,0.00,WUHU21623XXSP,2013-01-21 09:33:00,
2013-01-21 01:38:00,30.9,28.9,30.13,North,0,0.0,0.0,92,0.00,,,0.00,WUHU21623XXSP,2013-01-21 09:38:00,
2013-01-21 01:43:00,31.3,29.3,30.12,North,0,0.0,0.0,92,0.00,,,0.00,WUHU21623XXSP,2013-01-21 09:43:00,
2013-01-21 01:48:00,31.3,29.3,30.12,North,0,0.0,0.0,92,0.00,,,0.00,WUHU21623XXSP,2013-01-21 09:48:00,
2013-01-21 01:54:00,31.3,29.3,30.12,North,0,0.0,0.0,92,0.00,,,0.00,WUHU21623XXSP,2013-01-21 09:54:00,
2013-01-21 02:00:00,31.1,29.1,30.12,NNW,337,0.0,0.0,92,0.00,,,0.00,WUHU21623XXSP,2013-01-21 10:00:00,
2013-01-21 02:06:00,31.1,29.1,30.13,NNW,337,0.0,0.0,92,0.00,,,0.00,WUHU21623XXSP,2013-01-21 10:06:00,
2013-01-21 02:11:00,30.7,28.5,30.13,NNW,337,0.0,0.0,91,0.00,,,0.00,WUHU21623XXSP,2013-01-21 10:11:00,
2013-01-21 02:17:00,30.6,28.5,30.13,NNW,337,0.0,0.0,92,0.00,,,0.00,WUHU21623XXSP,2013-01-21 10:17:00,
2013-01-21 02:22:00,30.7,28.7,30.13,NNW,337,0.0,0.0,92,0.00,,,0.00,WUHU21623XXSP,2013-01-21 10:22:00,
2013-01-21 02:27:00,30.9,28.9,30.13,NNW,337,0.0,0.0,92,0.00,,,0.00,WUHU21623XXSP,2013-01-21 10:27:00,
2013-01-21 02:32:00,31.1,29.1,30.13,NNW,337,0.0,0.0,92,0.00,,,0.00,WUHU21623XXSP,2013-01-21 10:32:00,
2013-01-21 02:38:00,31.3,29.3,30.13,NNW,337,0.0,0.0,92,0.00,,,0.00,WUHU21623XXSP,2013-01-21 10:38:00,
2013-01-21 02:43:00,31.3,29.3,30.13,NNW,337,0.0,0.0,92,0.00,,,0.00,WUHU21623XXSP,2013-01-21 10:43:00,
2013-01-21 02:48:00,31.5,29.2,30.13,NNW,337,0.0,0.0,91,0.00,,,0.00,WUHU21623XXSP,2013-01-21 10:48:00,
2013-01-21 02:54:00,31.6,29.4,30.12,NNW,337,0.0,0.0,91,0.00,,,0.00,WUHU21623XXSP,2013-01-21 10:54:00,
2013-01-21 03:00:00,31.6,29.4,30.12,NNW,337,0.0,0.0,91,0.00,,,0.00,WUHU21623XXSP,2013-01-21 11:00:00,
2013-01-21 03:06:00,31.6,29.4,30.13,NNW,337,0.0,0.0,91,0.00,,,0.00,WUHU21623XXSP,2013-01-21 11:06:00,
2013-01-21 03:11:00,31.6,29.4,30.13,NNW,337,0.0,0.0,91,0.00,,,0.00,WUHU21623XXSP,2013-01-21 11:11:00,
2013-01-21 03:16:00,31.6,29.4,30.13,NNW,337,0.0,0.0,91,0.00,,,0.00,WUHU21623XXSP,2013-01-21 11:16:00,
2013-01-21 03:22:00,31.6,29.4,30.12,NNW,337,0.0,0.0,91,0.00,,,0.00,WUHU21623XXSP,2013-01-21 11:22:00,
2013-01-21 03:27:00,31.3,29.0,30.12,NNW,337,0.0,0.0,91,0.00,,,0.00,WUHU21623XXSP,2013-01-21 11:27:00,
2013-01-21 03:32:00,31.1,28.8,30.12,NNW,337,0.0,0.0,91,0.00,,,0.00,WUHU21623XXSP,2013-01-21 11:32:00,
2013-01-21 03:38:00,31.1,28.8,30.12,NNW,337,0.0,0.0,91,0.00,,,0.00,WUHU21623XXSP,2013-01-21 11:38:00,
2013-01-21 03:43:00,31.1,28.8,30.12,NNW,337,0.0,0.0,91,0.00,,,0.00,WUHU21623XXSP,2013-01-21 11:43:00,
2013-01-21 03:48:00,31.3,29.0,30.12,NNW,337,0.0,0.0,91,0.00,,,0.00,WUHU21623XXSP,2013-01-21 11:48:00,
2013-01-21 03:53:00,30.9,28.7,30.12,NNW,337,0.0,0.0,91,0.00,,,0.00,WUHU21623XXSP,2013-01-21 11:53:00,
2013-01-21 04:00:00,30.7,28.5,30.12,NNW,337,0.0,0.0,91,0.00,,,0.00,WUHU21623XXSP,2013-01-21 12:00:00,
2013-01-21 04:06:00,30.7,28.5,30.12,North,0,0.0,0.0,91,0.00,,,0.00,WUHU21623XXSP,2013-01-21 12:06:00,
2013-01-21 04:11:00,30.7,28.5,30.12,North,0,0.0,0.0,91,0.00,,,0.00,WUHU21623XXSP,2013-01-21 12:11:00,
2013-01-21 04:16:00,30.6,28.3,30.12,North,0,0.0,0.0,91,0.00,,,0.00,WUHU21623XXSP,2013-01-21 12:16:00,
2013-01-21 04:22:00,30.2,27.9,30.12,North,0,0.0,0.0,91,0.00,,,0.00,WUHU21623XXSP,2013-01-21 12:22:00,
2013-01-21 04:27:00,29.8,27.3,30.12,North,0,0.0,0.0,90,0.00,,,0.00,WUHU21623XXSP,2013-01-21 12:27:00,
2013-01-21 04:32:00,29.5,27.2,30.12,North,0,0.0,0.0,91,0.00,,,0.00,WUHU21623XXSP,2013-01-21 12:32:00,
2013-01-21 04:37:00,29.3,27.0,30.12,North,0,0.0,0.0,91,0.00,,,0.00,WUHU21623XXSP,2013-01-21 12:37:00,
2013-01-21 04:43:00,29.5,27.2,30.11,North,0,0.0,0.0,91,0.00,,,0.00,WUHU21623XXSP,2013-01-21 12:43:00,
2013-01-21 04:48:00,29.5,27.2,30.11,NE,45,0.0,0.0,91,0.00,,,0.00,WUHU21623XXSP,2013-01-21 12:48:00,
2013-01-21 04:53:00,29.7,27.4,30.11,NE,45,0.0,0.0,91,0.00,,,0.00,WUHU21623XXSP,2013-01-21 12:53:00,
2013-01-21 05:00:00,29.5,27.2,30.11,NE,45,0.0,0.0,91,0.00,,,0.00,WUHU21623XXSP,2013-01-21 13:00:00,
2013-01-21 05:05:00,29.3,27.0,30.10,NE,45,0.0,0.0,91,0.00,,,0.00,WUHU21623XXSP,2013-01-21 13:05:00,
2013-01-21 05:11:00,29.3,27.0,30.11,NE,45,0.0,0.0,91,0.00,,,0.00,WUHU21623XXSP,2013-01-21 13:11:00,
2013-01-21 05:16:00,29.7,27.4,30.10,NE,45,0.0,0.0,91,0.00,,,0.00,WUHU21623XXSP,2013-01-21 13:16:00,
2013-01-21 05:21:00,29.8,27.6,30.10,NE,45,0.0,0.0,91,0.00,,,0.00,WUHU21623XXSP,2013-01-21 13:21:00,
2013-01-21 05:26:00,29.7,27.4,30.10,NE,45,0.0,0.0,91,0.00,,,0.00,WUHU21623XXSP,2013-01-21 13:26:00,
2013-01-21 05:32:00,29.8,27.6,30.10,NE,45,0.0,0.0,91,0.00,,,0.00,WUHU21623XXSP,2013-01-21 13:32:00,
2013-01-21 05:37:00,29.8,27.6,30.10,NE,45,0.0,0.0,91,0.00,,,0.00,WUHU21623XXSP,2013-01-21 13:37:00,
2013-01-21 05:42:00,29.8,27.6,30.09,NE,45,0.0,0.0,91,0.00,,,0.00,WUHU21623XXSP,2013-01-21 13:42:00,
2013-01-21 05:48:00,30.0,27.8,30.09,NE,45,0.0,0.0,91,0.00,,,0.00,WUHU21623XXSP,2013-01-21 13:48:00,
2013-01-21 05:53:00,30.0,27.8,30.09,NE,45,0.0,0.0,91,0.00,,,0.00,WUHU21623XXSP,2013-01-21 13:53:00,
2013-01-21 06:00:00,30.4,28.1,30.09,NE,45,0.0,0.0,91,0.00,,,0.00,WUHU21623XXSP,2013-01-21 14:00:00,
2013-01-21 06:06:00,30.0,27.8,30.09,NE,45,0.0,0.0,91,0.00,,,0.00,WUHU21623XXSP,2013-01-21 14:06:00,
2013-01-21 06:11:00,30.0,27.8,30.09,NE,45,0.0,0.0,91,0.00,,,0.00,WUHU21623XXSP,2013-01-21 14:11:00,
2013-01-21 06:16:00,29.8,27.6,30.08,NE,45,0.0,0.0,91,0.00,,,0.00,WUHU21623XXSP,2013-01-21 14:16:00,
2013-01-21 06:21:00,29.5,27.2,30.07,NE,45,0.0,0.0,91,0.00,,,0.00,WUHU21623XXSP,2013-01-21 14:21:00,
2013-01-21 06:27:00,29.5,27.2,30.08,NE,45,0.0,0.0,91,0.00,,,0.00,WUHU21623XXSP,2013-01-21 14:27:00,
2013-01-21 06:32:00,29.3,27.0,30.07,NE,45,0.0,0.0,91,0.00,,,0.00,WUHU21623XXSP,2013-01-21 14:32:00,
2013-01-21 06:37:00,29.5,27.2,30.07,NE,45,0.0,0.0,91,0.00,,,0.00,WUHU21623XXSP,2013-01-21 14:37:00,
2013-01-21 06:42:00,29.7,27.4,30.07,NE,45,0.0,0.0,91,0.00,,,0.00,WUHU21623XXSP,2013-01-21 14:42:00,
2013-01-21 06:48:00,30.0,27.8,30.08,NE,45,0.0,0.0,91,0.00,,,0.00,WUHU21623XXSP,2013-01-21 14:48:00,
2013-01-21 06:53:00,30.0,27.8,30.07,ENE,67,0.0,0.0,91,0.00,,,0.00,WUHU21623XXSP,2013-01-21 14:53:00,
2013-01-21 06:58:00,30.2,27.9,30.08,ENE,67,0.0,0.0,91,0.00,,,0.00,WUHU21623XXSP,2013-01-21 14:58:00,
2013-01-21 07:04:00,30.4,28.1,30.07,ENE,67,0.0,0.0,91,0.00,,,0.00,WUHU21623XXSP,2013-01-21 15:04:00,
2013-01-21 07:09:00,30.4,28.1,30.07,ENE,67,0.0,0.0,91,0.00,,,0.00,WUHU21623XXSP,2013-01-21 15:09:00,
2013-01-21 07:14:00,30.6,28.3,30.08,ENE,67,0.0,0.0,91,0.00,,,0.00,WUHU21623XXSP,2013-01-21 15:14:00,
2013-01-21 07:19:00,30.7,28.2,30.07,ENE,67,0.0,0.0,90,0.00,,,0.00,WUHU21623XXSP,2013-01-21 15:19:00,
2013-01-21 07:25:00,30.4,27.9,30.07,ENE,67,0.0,0.0,90,0.00,,,0.00,WUHU21623XXSP,2013-01-21 15:25:00,
2013-01-21 07:30:00,30.0,27.5,30.06,ENE,67,0.0,0.0,90,0.00,,,0.00,WUHU21623XXSP,2013-01-21 15:30:00,
2013-01-21 07:35:00,29.8,27.3,30.06,ENE,67,0.0,0.0,90,0.00,,,0.00,WUHU21623XXSP,2013-01-21 15:35:00,
2013-01-21 07:40:00,29.5,27.0,30.06,ENE,67,0.0,0.0,90,0.00,,,0.00,WUHU21623XXSP,2013-01-21 15:40:00,
2013-01-21 07:46:00,29.7,27.4,30.06,ENE,67,0.0,0.0,91,0.00,,,0.00,WUHU21623XXSP,2013-01-21 15:46:00,
2013-01-21 07:51:00,29.8,27.6,30.06,ENE,67,0.0,0.0,91,0.00,,,0.00,WUHU21623XXSP,2013-01-21 15:51:00,
2013-01-21 07:56:00,30.0,27.8,30.06,ENE,67,0.0,0.0,91,0.00,,,0.00,WUHU21623XXSP,2013-01-21 15:56:00,
2013-01-21 08:01:00,30.2,27.9,30.07,ENE,67,0.0,0.0,91,0.00,,,0.00,WUHU21623XXSP,2013-01-21 16:01:00,
2013-01-21 08:07:00,30.6,28.3,30.07,ENE,67,0.0,0.0,91,0.00,,,0.00,WUHU21623XXSP,2013-01-21 16:07:00,
2013-01-21 08:12:00,30.7,28.5,30.07,ENE,67,0.0,0.0,91,0.00,,,0.00,WUHU21623XXSP,2013-01-21 16:12:00,
2013-01-21 08:17:00,30.7,28.5,30.07,ENE,67,0.0,0.0,91,0.00,,,0.00,WUHU21623XXSP,2013-01-21 16:17:00,
2013-01-21 08:22:00,30.7,28.5,30.07,ENE,67,0.0,0.0,91,0.00,,,0.00,WUHU21623XXSP,2013-01-21 16:22:00,
2013-01-21 08:28:00,30.7,28.5,30.08,ENE,67,0.0,0.0,91,0.00,,,0.00,WUHU21623XXSP,2013-01-21 16:28:00,
2013-01-21 08:33:00,30.9,28.7,30.08,ENE,67,0.0,0.0,91,0.00,,,0.00,WUHU21623XXSP,2013-01-21 16:33:00,
2013-01-21 08:38:00,30.9,28.7,30.08,ENE,67,0.0,0.0,91,0.00,,,0.00,WUHU21623XXSP,2013-01-21 16:38:00,
2013-01-21 08:44:00,30.7,28.5,30.08,ENE,67,0.0,0.0,91,0.00,,,0.00,WUHU21623XXSP,2013-01-21 16:44:00,
2013-01-21 08:49:00,30.7,28.5,30.08,ENE,67,0.0,0.0,91,0.00,,,0.00,WUHU21623XXSP,2013-01-21 16:49:00,
2013-01-21 08:54:00,30.6,28.3,30.08,ENE,67,0.0,0.0,91,0.00,,,0.00,WUHU21623XXSP,2013-01-21 16:54:00,
2013-01-21 08:59:00,30.4,28.1,30.08,ENE,67,0.0,0.0,91,0.00,,,0.00,WUHU21623XXSP,2013-01-21 16:59:00,
2013-01-21 09:05:00,30.4,28.1,30.08,ENE,67,0.0,0.0,91,0.00,,,0.00,WUHU21623XXSP,2013-01-21 17:05:00,
2013-01-21 09:10:00,30.4,28.1,30.08,ENE,67,0.0,0.0,91,0.00,,,0.00,WUHU21623XXSP,2013-01-21 17:10:00,
2013-01-21 09:15:00,30.6,28.3,30.08,ENE,67,0.0,0.0,91,0.00,,,0.00,WUHU21623XXSP,2013-01-21 17:15:00,
2013-01-21 09:20:00,30.6,28.3,30.09,ENE,67,0.0,0.0,91,0.00,,,0.00,WUHU21623XXSP,2013-01-21 17:20:00,
2013-01-21 09:26:00,30.7,28.5,30.09,ENE,67,0.0,0.0,91,0.00,,,0.00,WUHU21623XXSP,2013-01-21 17:26:00,
2013-01-21 09:31:00,30.7,28.5,30.09,ENE,67,0.0,0.0,91,0.00,,,0.00,WUHU21623XXSP,2013-01-21 17:31:00,
2013-01-21 09:36:00,30.9,28.7,30.09,ENE,67,0.0,0.0,91,0.00,,,0.00,WUHU21623XXSP,2013-01-21 17:36:00,
2013-01-21 09:41:00,31.1,28.8,30.09,ENE,67,0.0,0.0,91,0.00,,,0.00,WUHU21623XXSP,2013-01-21 17:41:00,
2013-01-21 09:47:00,30.9,28.7,30.10,ENE,67,0.0,0.0,91,0.00,,,0.00,WUHU21623XXSP,2013-01-21 17:47:00,
2013-01-21 09:52:00,30.6,28.3,30.10,ENE,67,0.0,0.0,91,0.00,,,0.00,WUHU21623XXSP,2013-01-21 17:52:00,
2013-01-21 09:57:00,30.7,28.5,30.09,ENE,67,0.0,0.0,91,0.00,,,0.00,WUHU21623XXSP,2013-01-21 17:57:00,
2013-01-21 10:02:00,30.9,28.7,30.09,ENE,67,0.0,0.0,91,0.00,,,0.00,WUHU21623XXSP,2013-01-21 18:02:00,
2013-01-21 10:08:00,31.3,29.0,30.09,ENE,67,0.0,0.0,91,0.00,,,0.00,WUHU21623XXSP,2013-01-21 18:08:00,
2013-01-21 10:13:00,31.3,29.0,30.09,ENE,67,0.0,0.0,91,0.00,,,0.00,WUHU21623XXSP,2013-01-21 18:13:00,
2013-01-21 10:18:00,31.8,29.6,30.09,ENE,67,0.0,0.0,91,0.00,,,0.00,WUHU21623XXSP,2013-01-21 18:18:00,
2013-01-21 10:24:00,31.8,29.6,30.09,ENE,67,0.0,0.0,91,0.00,,,0.00,WUHU21623XXSP,2013-01-21 18:24:00,
2013-01-21 10:29:00,32.0,29.7,30.09,ENE,67,0.0,0.0,91,0.00,,,0.00,WUHU21623XXSP,2013-01-21 18:29:00,
2013-01-21 10:34:00,32.2,29.9,30.09,ENE,67,0.0,0.0,91,0.00,,,0.00,WUHU21623XXSP,2013-01-21 18:34:00,
2013-01-21 10:39:00,32.4,30.1,30.10,ENE,67,0.0,0.0,91,0.00,,,0.00,WUHU21623XXSP,2013-01-21 18:39:00,
2013-01-21 10:45:00,32.5,30.2,30.09,ENE,67,0.0,0.0,91,0.00,,,0.00,WUHU21623XXSP,2013-01-21 18:45:00,
2013-01-21 10:50:00,32.7,30.4,30.09,ENE,67,0.0,0.0,91,0.00,,,0.00,WUHU21623XXSP,2013-01-21 18:50:00,
2013-01-21 10:55:00,32.9,30.5,30.10,ENE,67,0.0,0.0,91,0.00,,,0.00,WUHU21623XXSP,2013-01-21 18:55:00,
2013-01-21 11:00:00,33.1,30.7,30.09,ENE,67,0.0,0.0,91,0.00,,,0.00,WUHU21623XXSP,2013-01-21 19:00:00,
2013-01-21 11:06:00,33.4,31.0,30.09,ENE,67,0.0,0.0,91,0.00,,,0.00,WUHU21623XXSP,2013-01-21 19:06:00,
2013-01-21 11:12:00,33.6,31.2,30.10,ENE,67,0.0,0.0,91,0.00,,,0.00,WUHU21623XXSP,2013-01-21 19:12:00,
2013-01-21 11:17:00,34.0,31.6,30.10,ENE,67,0.0,0.0,91,0.00,,,0.00,WUHU21623XXSP,2013-01-21 19:17:00,
2013-01-21 11:22:00,34.3,31.9,30.10,ENE,67,0.0,0.0,91,0.00,,,0.00,WUHU21623XXSP,2013-01-21 19:22:00,
2013-01-21 11:28:00,34.3,31.9,30.09,ENE,67,0.0,0.0,91,0.00,,,0.00,WUHU21623XXSP,2013-01-21 19:28:00,
2013-01-21 11:33:00,34.5,32.1,30.09,ENE,67,0.0,0.0,91,0.00,,,0.00,WUHU21623XXSP,2013-01-21 19:33:00,
2013-01-21 11:38:00,34.7,32.3,30.08,ENE,67,0.0,0.0,91,0.00,,,0.00,WUHU21623XXSP,2013-01-21 19:38:00,
2013-01-21 11:44:00,34.9,32.5,30.08,ENE,67,0.0,0.0,91,0.00,,,0.00,WUHU21623XXSP,2013-01-21 19:44:00,
2013-01-21 11:49:00,34.9,32.5,30.08,SE,135,0.0,0.0,91,0.00,,,0.00,WUHU21623XXSP,2013-01-21 19:49:00,
2013-01-21 11:54:00,35.1,32.6,30.08,SE,135,0.0,0.0,91,0.00,,,0.00,WUHU21623XXSP,2013-01-21 19:54:00,
2013-01-21 11:59:00,35.2,32.8,30.08,SE,135,0.0,0.0,91,0.00,,,0.00,WUHU21623XXSP,2013-01-21 19:59:00,
2013-01-21 12:05:00,35.4,32.7,30.08,SE,135,0.0,0.0,90,0.00,,,0.00,WUHU21623XXSP,2013-01-21 20:05:00,
2013-01-21 12:10:00,35.4,32.7,30.08,SE,135,0.0,0.0,90,0.00,,,0.00,WUHU21623XXSP,2013-01-21 20:10:00,
2013-01-21 12:15:00,35.4,32.7,30.07,SE,135,0.0,0.0,90,0.00,,,0.00,WUHU21623XXSP,2013-01-21 20:15:00,
2013-01-21 12:20:00,35.4,32.7,30.07,SE,135,0.0,0.0,90,0.00,,,0.00,WUHU21623XXSP,2013-01-21 20:20:00,
2013-01-21 12:26:00,34.9,32.2,30.08,ESE,112,0.0,0.0,90,0.00,,,0.00,WUHU21623XXSP,2013-01-21 20:26:00,
2013-01-21 12:31:00,34.9,32.2,30.07,ESE,112,0.0,0.0,90,0.00,,,0.00,WUHU21623XXSP,2013-01-21 20:31:00,
2013-01-21 12:36:00,34.9,32.2,30.07,ESE,112,0.0,0.0,90,0.00,,,0.00,WUHU21623XXSP,2013-01-21 20:36:00,
2013-01-21 12:42:00,35.2,32.8,30.07,ESE,112,0.0,0.0,91,0.00,,,0.00,WUHU21623XXSP,2013-01-21 20:42:00,
2013-01-21 12:47:00,35.4,33.0,30.07,ESE,112,0.0,0.0,91,0.00,,,0.00,WUHU21623XXSP,2013-01-21 20:47:00,
2013-01-21 12:52:00,34.9,32.2,30.07,ESE,112,0.0,0.0,90,0.00,,,0.00,WUHU21623XXSP,2013-01-21 20:52:00,
2013-01-21 12:57:00,34.9,32.2,30.07,East,90,0.0,0.0,90,0.00,,,0.00,WUHU21623XXSP,2013-01-21 20:57:00,
2013-01-21 13:03:00,34.7,32.0,30.06,East,90,0.0,0.0,90,0.00,,,0.00,WUHU21623XXSP,2013-01-21 21:03:00,
2013-01-21 13:08:00,34.5,32.1,30.06,East,90,0.0,0.0,91,0.00,,,0.00,WUHU21623XXSP,2013-01-21 21:08:00,
2013-01-21 13:13:00,34.5,32.1,30.06,East,90,0.0,0.0,91,0.00,,,0.00,WUHU21623XXSP,2013-01-21 21:13:00,
2013-01-21 13:18:00,34.5,32.1,30.06,East,90,0.0,0.0,91,0.00,,,0.00,WUHU21623XXSP,2013-01-21 21:18:00,
2013-01-21 13:24:00,34.7,32.3,30.06,NE,45,0.0,0.0,91,0.00,,,0.00,WUHU21623XXSP,2013-01-21 21:24:00,
2013-01-21 13:29:00,34.5,32.1,30.05,NE,45,0.0,0.0,91,0.00,,,0.00,WUHU21623XXSP,2013-01-21 21:29:00,
2013-01-21 13:34:00,34.3,31.9,30.06,NNE,22,0.0,0.0,91,0.00,,,0.00,WUHU21623XXSP,2013-01-21 21:34:00,
2013-01-21 13:39:00,34.3,31.9,30.04,NNE,22,0.0,0.0,91,0.00,,,0.00,WUHU21623XXSP,2013-01-21 21:39:00,
2013-01-21 13:45:00,34.2,31.7,30.05,NNE,22,0.0,0.0,91,0.00,,,0.00,WUHU21623XXSP,2013-01-21 21:45:00,
2013-01-21 13:50:00,34.0,31.6,30.04,NNE,22,0.0,0.0,91,0.00,,,0.00,WUHU21623XXSP,2013-01-21 21:50:00,
2013-01-21 13:55:00,34.0,31.6,30.04,NNE,22,0.0,0.0,91,0.00,,,0.00,WUHU21623XXSP,2013-01-21 21:55:00,
2013-01-21 14:00:00,34.3,31.9,30.04,NNE,22,0.0,0.0,91,0.00,,,0.00,WUHU21623XXSP,2013-01-21 22:00:00,
2013-01-21 14:06:00,34.5,32.4,30.04,NNE,22,0.0,0.0,92,0.00,,,0.00,WUHU21623XXSP,2013-01-21 22:06:00,
2013-01-21 14:11:00,34.3,31.9,30.04,NNE,22,0.0,0.0,91,0.00,,,0.00,WUHU21623XXSP,2013-01-21 22:11:00,
2013-01-21 14:16:00,34.2,31.7,30.04,North,0,0.0,0.0,91,0.00,,,0.00,WUHU21623XXSP,2013-01-21 22:16:00,
2013-01-21 14:21:00,34.0,31.6,30.03,North,0,0.0,0.0,91,0.00,,,0.00,WUHU21623XXSP,2013-01-21 22:21:00,
2013-01-21 14:27:00,33.8,31.4,30.03,North,0,0.0,0.0,91,0.00,,,0.00,WUHU21623XXSP,2013-01-21 22:27:00,
2013-01-21 14:32:00,33.8,31.4,30.03,North,0,0.0,0.0,91,0.00,,,0.00,WUHU21623XXSP,2013-01-21 22:32:00,
2013-01-21 14:37:00,34.2,31.7,30.03,North,0,0.0,0.0,91,0.00,,,0.00,WUHU21623XXSP,2013-01-21 22:37:00,
2013-01-21 14:42:00,34.3,31.9,30.03,North,0,0.0,0.0,91,0.00,,,0.00,WUHU21623XXSP,2013-01-21 22:42:00,
2013-01-21 14:48:00,34.5,32.4,30.02,North,0,0.0,0.0,92,0.00,,,0.00,WUHU21623XXSP,2013-01-21 22:48:00,
2013-01-21 14:53:00,34.7,32.3,30.03,North,0,0.0,0.0,91,0.00,,,0.00,WUHU21623XXSP,2013-01-21 22:53:00,
2013-01-21 14:58:00,34.7,32.3,30.02,North,0,0.0,0.0,91,0.00,,,0.00,WUHU21623XXSP,2013-01-21 22:58:00,
2013-01-21 15:04:00,34.9,32.5,30.01,North,0,0.0,0.0,91,0.00,,,0.00,WUHU21623XXSP,2013-01-21 23:04:00,
2013-01-21 15:09:00,34.9,32.5,30.01,NNE,22,0.0,0.0,91,0.00,,,0.00,WUHU21623XXSP,2013-01-21 23:09:00,
2013-01-21 15:14:00,35.2,32.8,30.01,SE,135,0.0,0.0,91,0.00,,,0.00,WUHU21623XXSP,2013-01-21 23:14:00,
2013-01-21 15:19:00,35.2,32.8,30.01,SE,135,0.0,0.0,91,0.00,,,0.00,WUHU21623XXSP,2013-01-21 23:19:00,
2013-01-21 15:25:00,35.4,32.7,30.01,SE,135,0.0,0.0,90,0.00,,,0.00,WUHU21623XXSP,2013-01-21 23:25:00,
2013-01-21 15:30:00,35.4,32.7,30.01,SE,135,0.0,0.0,90,0.00,,,0.00,WUHU21623XXSP,2013-01-21 23:30:00,
2013-01-21 15:35:00,35.4,32.7,30.01,SE,135,0.0,0.0,90,0.00,,,0.00,WUHU21623XXSP,2013-01-21 23:35:00,
2013-01-21 15:40:00,35.4,32.7,30.01,SE,135,0.0,0.0,90,0.00,,,0.00,WUHU21623XXSP,2013-01-21 23:40:00,
2013-01-21 15:46:00,35.4,32.7,30.01,SE,135,0.0,0.0,90,0.00,,,0.00,WUHU21623XXSP,2013-01-21 23:46:00,
2013-01-21 15:51:00,35.4,32.7,30.01,SE,135,0.0,0.0,90,0.00,,,0.00,WUHU21623XXSP,2013-01-21 23:51:00,
2013-01-21 15:56:00,35.4,32.7,30.00,SE,135,0.0,0.0,90,0.00,,,0.00,WUHU21623XXSP,2013-01-21 23:56:00,
2013-01-21 16:01:00,35.4,32.7,30.00,SE,135,0.0,0.0,90,0.00,,,0.00,WUHU21623XXSP,2013-01-22 00:01:00,
2013-01-21 16:07:00,35.4,32.7,30.01,SE,135,0.0,0.0,90,0.00,,,0.00,WUHU21623XXSP,2013-01-22 00:07:00,
2013-01-21 16:12:00,35.4,32.7,30.01,SE,135,0.0,0.0,90,0.00,,,0.00,WUHU21623XXSP,2013-01-22 00:12:00,
2013-01-21 16:17:00,35.2,32.5,30.01,SE,135,0.0,0.0,90,0.00,,,0.00,WUHU21623XXSP,2013-01-22 00:17:00,
2013-01-21 16:22:00,34.7,32.0,30.00,SE,135,0.0,0.0,90,0.00,,,0.00,WUHU21623XXSP,2013-01-22 00:22:00,
2013-01-21 16:28:00,34.3,31.6,30.00,SSW,202,0.0,0.0,90,0.00,,,0.00,WUHU21623XXSP,2013-01-22 00:28:00,
2013-01-21 16:33:00,34.3,31.6,30.01,SSW,202,0.0,0.0,90,0.00,,,0.00,WUHU21623XXSP,2013-01-22 00:33:00,
2013-01-21 16:38:00,34.3,31.9,30.01,SSW,202,0.0,0.0,91,0.00,,,0.00,WUHU21623XXSP,2013-01-22 00:38:00,
2013-01-21 16:43:00,34.3,31.9,30.01,SSW,202,0.0,0.0,91,0.00,,,0.00,WUHU21623XXSP,2013-01-22 00:43:00,
2013-01-21 16:49:00,34.3,31.9,30.01,SSW,202,0.0,0.0,91,0.00,,,0.00,WUHU21623XXSP,2013-01-22 00:49:00,
2013-01-21 16:54:00,34.5,32.1,30.01,SSW,202,0.0,0.0,91,0.00,,,0.00,WUHU21623XXSP,2013-01-22 00:54:00,
2013-01-21 16:59:00,34.7,32.3,30.01,SSW,202,0.0,0.0,91,0.00,,,0.00,WUHU21623XXSP,2013-01-22 00:59:00,
2013-01-21 17:04:00,34.7,32.3,30.01,SSW,202,0.0,0.0,91,0.00,,,0.00,WUHU21623XXSP,2013-01-22 01:04:00,
2013-01-21 17:10:00,34.9,32.5,30.01,SSW,202,0.0,0.0,91,0.00,,,0.00,WUHU21623XXSP,2013-01-22 01:10:00,
2013-01-21 17:15:00,34.9,32.5,30.01,SSW,202,0.0,0.0,91,0.00,,,0.00,WUHU21623XXSP,2013-01-22 01:15:00,
2013-01-21 17:20:00,34.9,32.5,30.01,SSW,202,0.0,0.0,91,0.00,,,0.00,WUHU21623XXSP,2013-01-22 01:20:00,
2013-01-21 17:25:00,34.9,32.5,30.01,SSW,202,0.0,0.0,91,0.00,,,0.00,WUHU21623XXSP,2013-01-22 01:25:00,
2013-01-21 17:31:00,34.9,32.5,30.01,SSW,202,0.0,0.0,91,0.00,,,0.00,WUHU21623XXSP,2013-01-22 01:31:00,
2013-01-21 17:36:00,34.9,32.5,30.01,ESE,112,0.0,0.0,91,0.00,,,0.00,WUHU21623XXSP,2013-01-22 01:36:00,
2013-01-21 17:41:00,34.7,32.3,30.01,ESE,112,0.0,0.0,91,0.00,,,0.00,WUHU21623XXSP,2013-01-22 01:41:00,
2013-01-21 17:46:00,34.5,32.1,30.01,SSE,157,0.0,0.0,91,0.00,,,0.00,WUHU21623XXSP,2013-01-22 01:46:00,
2013-01-21 17:52:00,34.3,31.9,30.00,ESE,112,0.0,0.0,91,0.00,,,0.00,WUHU21623XXSP,2013-01-22 01:52:00,
2013-01-21 17:57:00,34.3,31.9,30.01,SSE,157,0.0,0.0,91,0.00,,,0.00,WUHU21623XXSP,2013-01-22 01:57:00,
2013-01-21 18:02:00,34.3,31.9,30.01,SE,135,0.0,0.0,91,0.00,,,0.00,WUHU21623XXSP,2013-01-22 02:02:00,
2013-01-21 18:08:00,34.3,31.9,30.00,SE,135,0.0,0.0,91,0.00,,,0.00,WUHU21623XXSP,2013-01-22 02:08:00,
2013-01-21 18:13:00,34.2,31.7,30.00,ESE,112,0.0,0.0,91,0.00,,,0.00,WUHU21623XXSP,2013-01-22 02:13:00,
2013-01-21 18:18:00,34.0,31.6,30.00,ESE,112,0.0,0.0,91,0.00,,,0.00,WUHU21623XXSP,2013-01-22 02:18:00,
2013-01-21 18:23:00,33.8,31.4,29.99,ESE,112,0.0,0.0,91,0.00,,,0.00,WUHU21623XXSP,2013-01-22 02:23:00,
2013-01-21 18:29:00,33.6,31.2,29.99,SE,135,0.0,0.0,91,0.00,,,0.00,WUHU21623XXSP,2013-01-22 02:29:00,
2013-01-21 18:34:00,33.8,31.4,29.99,SE,135,0.0,0.0,91,0.00,,,0.00,WUHU21623XXSP,2013-01-22 02:34:00,
2013-01-21 18:39:00,33.8,31.4,30.00,SE,135,0.0,0.0,91,0.00,,,0.00,WUHU21623XXSP,2013-01-22 02:39:00,
2013-01-21 18:44:00,34.0,31.6,30.00,SE,135,0.0,0.0,91,0.00,,,0.00,WUHU21623XXSP,2013-01-22 02:44:00,
2013-01-21 18:50:00,34.0,31.6,30.00,SE,135,0.0,0.0,91,0.00,,,0.00,WUHU21623XXSP,2013-01-22 02:50:00,
2013-01-21 18:55:00,34.2,31.7,30.00,SE,135,0.0,0.0,91,0.00,,,0.00,WUHU21623XXSP,2013-01-22 02:55:00,
2013-01-21 19:00:00,34.2,31.7,30.00,SE,135,0.0,0.0,91,0.00,,,0.00,WUHU21623XXSP,2013-01-22 03:00:00,
2013-01-21 19:05:00,34.2,31.7,29.99,SE,135,0.0,0.0,91,0.00,,,0.00,WUHU21623XXSP,2013-01-22 03:05:00,
2013-01-21 19:11:00,34.2,31.7,29.99,SE,135,0.0,0.0,91,0.00,,,0.00,WUHU21623XXSP,2013-01-22 03:11:00,
2013-01-21 19:16:00,34.2,31.7,29.99,SE,135,0.0,0.0,91,0.00,,,0.00,WUHU21623XXSP,2013-01-22 03:16:00,
2013-01-21 19:21:00,34.3,31.9,29.99,SE,135,0.0,0.0,91,0.00,,,0.00,WUHU21623XXSP,2013-01-22 03:21:00,
2013-01-21 19:27:00,34.3,31.9,29.99,SE,135,0.0,0.0,91,0.00,,,0.00,WUHU21623XXSP,2013-01-22 03:27:00,
2013-01-21 19:32:00,34.3,31.9,29.99,SE,135,0.0,0.0,91,0.00,,,0.00,WUHU21623XXSP,2013-01-22 03:32:00,
2013-01-21 19:37:00,34.3,31.9,29.99,SE,135,0.0,0.0,91,0.00,,,0.00,WUHU21623XXSP,2013-01-22 03:37:00,
2013-01-21 19:42:00,34.3,31.9,30.00,SE,135,0.0,0.0,91,0.00,,,0.00,WUHU21623XXSP,2013-01-22 03:42:00,
2013-01-21 19:48:00,34.3,31.9,30.00,SSE,157,0.0,0.0,91,0.00,,,0.00,WUHU21623XXSP,2013-01-22 03:48:00,
2013-01-21 19:53:00,34.3,31.9,30.00,SSE,157,0.0,0.0,91,0.00,,,0.00,WUHU21623XXSP,2013-01-22 03:53:00,
2013-01-21 19:58:00,34.3,31.9,30.00,SSE,157,0.0,0.0,91,0.00,,,0.00,WUHU21623XXSP,2013-01-22 03:58:00,
2013-01-21 20:03:00,34.3,31.9,30.00,SSE,157,0.0,0.0,91,0.00,,,0.00,WUHU21623XXSP,2013-01-22 04:03:00,
2013-01-21 20:09:00,34.3,31.9,30.01,SSE,157,0.0,0.0,91,0.00,,,0.00,WUHU21623XXSP,2013-01-22 04:09:00,
2013-01-21 20:14:00,34.3,31.9,30.01,SSE,157,0.0,0.0,91,0.00,,,0.00,WUHU21623XXSP,2013-01-22 04:14:00,
2013-01-21 20:19:00,34.5,32.1,30.01,SSE,157,0.0,0.0,91,0.00,,,0.00,WUHU21623XXSP,2013-01-22 04:19:00,
2013-01-21 20:25:00,34.7,32.3,30.01,SE,135,0.0,0.0,91,0.00,,,0.00,WUHU21623XXSP,2013-01-22 04:25:00,
2013-01-21 20:30:00,34.7,32.3,30.01,SE,135,0.0,0.0,91,0.00,,,0.00,WUHU21623XXSP,2013-01-22 04:30:00,
2013-01-21 20:35:00,34.7,32.3,30.01,SE,135,0.0,0.0,91,0.00,,,0.00,WUHU21623XXSP,2013-01-22 04:35:00,
2013-01-21 20:40:00,34.9,32.5,30.01,SE,135,0.0,0.0,91,0.00,,,0.00,WUHU21623XXSP,2013-01-22 04:40:00,
2013-01-21 20:46:00,34.9,32.5,30.01,SE,135,0.0,0.0,91,0.00,,,0.00,WUHU21623XXSP,2013-01-22 04:46:00,
2013-01-21 20:51:00,34.9,32.5,30.01,SE,135,0.0,0.0,91,0.00,,,0.00,WUHU21623XXSP,2013-01-22 04:51:00,
2013-01-21 20:56:00,34.9,32.5,30.01,SE,135,0.0,0.0,91,0.00,,,0.00,WUHU21623XXSP,2013-01-22 04:56:00,
2013-01-21 21:01:00,34.9,32.5,30.01,SE,135,0.0,0.0,91,0.00,,,0.00,WUHU21623XXSP,2013-01-22 05:01:00,
2013-01-21 21:07:00,34.9,32.5,30.01,ESE,112,0.0,0.0,91,0.00,,,0.00,WUHU21623XXSP,2013-01-22 05:07:00,
2013-01-21 21:12:00,34.9,32.5,30.01,ESE,112,0.0,0.0,91,0.00,,,0.00,WUHU21623XXSP,2013-01-22 05:12:00,
2013-01-21 21:17:00,34.9,32.5,30.01,ESE,112,0.0,0.0,91,0.00,,,0.00,WUHU21623XXSP,2013-01-22 05:17:00,
2013-01-21 21:23:00,34.9,32.5,30.02,ESE,112,0.0,0.0,91,0.00,,,0.00,WUHU21623XXSP,2013-01-22 05:23:00,
2013-01-21 21:28:00,34.9,32.5,30.01,ESE,112,0.0,0.0,91,0.00,,,0.00,WUHU21623XXSP,2013-01-22 05:28:00,
2013-01-21 21:33:00,34.9,32.5,30.00,ESE,112,0.0,0.0,91,0.00,,,0.00,WUHU21623XXSP,2013-01-22 05:33:00,
2013-01-21 21:38:00,34.9,32.5,30.00,ESE,112,0.0,0.0,91,0.00,,,0.00,WUHU21623XXSP,2013-01-22 05:38:00,
2013-01-21 21:44:00,34.9,32.5,30.01,SE,135,0.0,0.0,91,0.00,,,0.00,WUHU21623XXSP,2013-01-22 05:44:00,
2013-01-21 21:49:00,34.9,32.5,30.01,SE,135,0.0,0.0,91,0.00,,,0.00,WUHU21623XXSP,2013-01-22 05:49:00,
2013-01-21 21:54:00,34.9,32.5,30.01,SE,135,0.0,0.0,91,0.00,,,0.00,WUHU21623XXSP,2013-01-22 05:54:00,
2013-01-21 21:59:00,34.7,32.0,30.01,SE,135,0.0,0.0,90,0.00,,,0.00,WUHU21623XXSP,2013-01-22 05:59:00,
2013-01-21 22:05:00,34.5,31.8,30.01,SE,135,0.0,0.0,90,0.00,,,0.00,WUHU21623XXSP,2013-01-22 06:05:00,
2013-01-21 22:10:00,34.5,31.8,30.01,SE,135,0.0,0.0,90,0.00,,,0.00,WUHU21623XXSP,2013-01-22 06:10:00,
2013-01-21 22:15:00,34.3,31.6,30.01,SE,135,0.0,0.0,90,0.00,,,0.00,WUHU21623XXSP,2013-01-22 06:15:00,
2013-01-21 22:20:00,34.3,31.6,30.01,SE,135,0.0,0.0,90,0.00,,,0.00,WUHU21623XXSP,2013-01-22 06:20:00,
2013-01-21 22:26:00,34.3,31.6,30.00,SE,135,0.0,0.0,90,0.00,,,0.00,WUHU21623XXSP,2013-01-22 06:26:00,
2013-01-21 22:31:00,34.3,31.6,30.00,SE,135,0.0,0.0,90,0.00,,,0.00,WUHU21623XXSP,2013-01-22 06:31:00,
2013-01-21 22:36:00,34.3,31.6,30.01,SSE,157,0.0,0.0,90,0.00,,,0.00,WUHU21623XXSP,2013-01-22 06:36:00,
2013-01-21 22:41:00,34.2,31.5,30.00,ESE,112,0.0,0.0,90,0.00,,,0.00,WUHU21623XXSP,2013-01-22 06:41:00,
2013-01-21 22:47:00,34.0,31.3,30.00,ESE,112,0.0,0.0,90,0.00,,,0.00,WUHU21623XXSP,2013-01-22 06:47:00,
2013-01-21 22:52:00,33.6,30.9,30.00,ESE,112,0.0,0.0,90,0.00,,,0.00,WUHU21623XXSP,2013-01-22 06:52:00,
2013-01-21 22:57:00,33.6,30.9,30.00,ESE,112,0.0,0.0,90,0.00,,,0.00,WUHU21623XXSP,2013-01-22 06:57:00,
2013-01-21 23:03:00,33.4,30.8,29.99,ESE,112,0.0,0.0,90,0.00,,,0.00,WUHU21623XXSP,2013-01-22 07:03:00,
2013-01-21 23:08:00,33.1,30.5,30.00,ESE,112,0.0,0.0,90,0.00,,,0.00,WUHU21623XXSP,2013-01-22 07:08:00,
2013-01-21 23:13:00,32.9,30.3,30.00,ESE,112,0.0,0.0,90,0.00,,,0.00,WUHU21623XXSP,2013-01-22 07:13:00,
2013-01-21 23:18:00,32.7,30.1,30.00,ESE,112,0.0,0.0,90,0.00,,,0.00,WUHU21623XXSP,2013-01-22 07:18:00,
2013-01-21 23:24:00,32.9,30.5,30.00,ESE,112,0.0,0.0,91,0.00,,,0.00,WUHU21623XXSP,2013-01-22 07:24:00,
2013-01-21 23:29:00,33.1,30.7,30.00,ESE,112,0.0,0.0,91,0.00,,,0.00,WUHU21623XXSP,2013-01-22 07:29:00,
2013-01-21 23:34:00,33.1,30.7,30.00,ESE,112,0.0,0.0,91,0.00,,,0.00,WUHU21623XXSP,2013-01-22 07:34:00,
2013-01-21 23:40:00,32.9,30.3,29.99,ESE,112,0.0,0.0,90,0.00,,,0.00,WUHU21623XXSP,2013-01-22 07:40:00,
2013-01-21 23:45:00,32.9,30.5,30.00,ESE,112,0.0,0.0,91,0.00,,,0.00,WUHU21623XXSP,2013-01-22 07:45:00,
2013-01-21 23:50:00,32.9,30.5,30.00,ESE,112,0.0,0.0,91,0.00,,,0.00,WUHU21623XXSP,2013-01-22 07:50:00,